Flag for Mexico Weather past 2 weeks in Puerto Vallarta, Jalisco, Mexico

Now
82 °F

Scattered clouds.


Feels Like: 87 °F
Forecast: 66 / 83 °F
Wind: 8 mph from Southwest

Location: Puerto Vallarta / Lic

Current Time: Jan 28, 2015 at 2:18:07 PM

Latest Report: Jan 28, 2015 at 1:45 PM


Visibility: 15 mi

Pressure: 29.92 "Hg

Humidity: 70%

Dew point: 72 °F

Location of Puerto VallartaLocation

Historic Weather in Puerto Vallarta — Graph

°F

Puerto Vallarta temperature yesterday

Maximum temperature yesterday: 84 °F (at 2:49 PM)
Minimum temperature yesterday: 66 °F (at 6:48 AM)
Average temperature yesterday: 75 °F

Past Weeks' High & Low Weather Summary

 TemperatureHumidityPressure
High86 °F (Jan 26, 2:49 PM)100% (Jan 20, 3:47 AM)30.05 "Hg (Jan 20, 3:47 AM)
Low59 °F (Jan 14, 6:44 AM)40% (Jan 16, 11:49 AM)29.85 "Hg (Jan 20, 3:49 PM)
Average72 °F79%29.95 "Hg
* Reported Jan 13 12:46 PM — Jan 28 12:45 PM, Puerto Vallarta, Weather by CustomWeather, © 2014

Note: Actual official high and low records may vary slightly from our data, if they occured in-between our weather recording intervals... More about our weather records

Advertising

Puerto Vallarta weather history for previous 24 hours

 ConditionsComfort  
Time TempWeatherWind HumidityBarometerVisibility
12:45 PM
Jan 28
82 °FScattered clouds.7 mph70%29.95 "Hg15 mi
11:45 AM81 °FOvercast.6 mph66%29.97 "Hg15 mi
10:46 AM79 °FOvercast.No wind65%29.97 "Hg15 mi
9:51 AM73 °FHigh level clouds.No wind78%29.95 "Hg15 mi
7:48 AM64 °FPartly sunny.No wind94%29.93 "Hg15 mi
6:47 AM64 °FPassing clouds.No wind100%29.92 "Hg12 mi
5:43 AM66 °FClear.No wind94%29.90 "Hg12 mi
4:45 AM66 °FClear.No wind94%29.91 "Hg12 mi
3:47 AM68 °FClear.5 mph88%29.92 "Hg12 mi
2:46 AM70 °FPassing clouds.5 mph88%29.93 "Hg12 mi
12:45 AM70 °FPassing clouds.No wind88%29.97 "Hg12 mi
10:49 PM
Jan 27
72 °FClear.No wind88%29.97 "Hg12 mi
9:46 PM73 °FClear.No wind89%29.96 "Hg12 mi
8:49 PM75 °FClear.No wind83%29.94 "Hg12 mi
7:47 PM77 °FClear.No wind83%29.94 "Hg12 mi
6:47 PM79 °FPassing clouds.5 mph84%29.92 "Hg15 mi
5:49 PM81 °FSunny.9 mph79%29.90 "Hg15 mi
4:47 PM81 °FSunny.12 mph79%29.90 "Hg15 mi
3:47 PM82 °FSunny.7 mph70%29.89 "Hg15 mi
2:49 PM84 °FSunny.8 mph62%29.90 "Hg15 mi
Weather by CustomWeather, © 2014

See weather overviewHow to use our weather pages